TimeCST,TemperatureF,Dew PointF,Humidity,Sea Level PressureIn,VisibilityMPH,Wind Direction,Wind SpeedMPH,Gust SpeedMPH,PrecipitationIn,Events,Conditions,WindDirDegrees,DateUTC
12:15 AM,30.7,25.0,79,29.91,10.0,West,17.3,23.0,N/A,,Overcast,280,2012-12-10 06:15:00
12:35 AM,29.3,23.0,77,29.91,10.0,WNW,15.0,25.3,N/A,,Overcast,290,2012-12-10 06:35:00
12:55 AM,28.4,22.5,78,29.91,10.0,WNW,11.5,18.4,N/A,,Overcast,290,2012-12-10 06:55:00
1:15 AM,28.2,22.1,78,29.90,10.0,West,13.8,21.9,N/A,,Overcast,270,2012-12-10 07:15:00
1:35 AM,28.0,22.1,78,29.91,10.0,WNW,9.2,18.4,N/A,,Overcast,290,2012-12-10 07:35:00
1:55 AM,28.0,22.3,79,29.91,10.0,West,9.2,18.4,N/A,,Overcast,270,2012-12-10 07:55:00
2:15 AM,27.9,22.1,79,29.92,10.0,West,10.4,19.6,N/A,,Overcast,280,2012-12-10 08:15:00
2:35 AM,26.6,21.2,80,29.92,10.0,WNW,11.5,18.4,N/A,,Overcast,290,2012-12-10 08:35:00
2:55 AM,27.3,21.2,78,29.91,10.0,WNW,12.7,19.6,N/A,,Overcast,290,2012-12-10 08:55:00
3:15 AM,27.3,21.2,78,29.90,10.0,West,12.7,-,N/A,,Overcast,270,2012-12-10 09:15:00
3:35 AM,26.8,20.5,77,29.90,10.0,WNW,13.8,19.6,N/A,,Overcast,290,2012-12-10 09:35:00
3:55 AM,26.4,20.3,78,29.90,10.0,West,13.8,18.4,N/A,,Overcast,280,2012-12-10 09:55:00
4:15 AM,26.4,20.8,79,29.90,10.0,West,13.8,18.4,N/A,,Overcast,280,2012-12-10 10:15:00
4:35 AM,26.2,20.3,78,29.90,10.0,WNW,11.5,17.3,N/A,,Overcast,290,2012-12-10 10:35:00
4:55 AM,26.1,20.1,78,29.90,10.0,West,15.0,20.7,N/A,,Overcast,280,2012-12-10 10:55:00
5:15 AM,26.1,20.3,79,29.90,10.0,WNW,16.1,20.7,N/A,,Overcast,290,2012-12-10 11:15:00
5:35 AM,26.6,19.4,74,29.89,10.0,West,12.7,20.7,N/A,,Overcast,280,2012-12-10 11:35:00
5:55 AM,25.7,20.1,79,29.89,10.0,WNW,10.4,21.9,N/A,,Overcast,290,2012-12-10 11:55:00
6:15 AM,25.7,19.9,79,29.91,10.0,WNW,12.7,21.9,N/A,,Overcast,290,2012-12-10 12:15:00
6:35 AM,25.5,19.8,79,29.92,10.0,West,13.8,19.6,N/A,,Overcast,280,2012-12-10 12:35:00
6:55 AM,25.5,19.9,79,29.93,10.0,West,15.0,21.9,N/A,,Overcast,280,2012-12-10 12:55:00
7:15 AM,25.7,20.1,79,29.94,10.0,West,15.0,19.6,N/A,,Overcast,270,2012-12-10 13:15:00
7:35 AM,25.3,20.1,81,29.96,10.0,West,10.4,18.4,N/A,,Overcast,280,2012-12-10 13:35:00
7:55 AM,25.2,19.9,81,29.95,10.0,West,12.7,20.7,N/A,,Overcast,280,2012-12-10 13:55:00
8:15 AM,25.0,20.3,82,29.96,10.0,West,11.5,18.4,N/A,,Overcast,270,2012-12-10 14:15:00
8:35 AM,24.8,20.3,83,29.96,10.0,West,12.7,19.6,N/A,,Overcast,280,2012-12-10 14:35:00
8:55 AM,25.2,20.1,81,29.97,10.0,WNW,15.0,23.0,N/A,,Overcast,290,2012-12-10 14:55:00
9:15 AM,25.2,20.1,81,29.97,10.0,West,12.7,17.3,N/A,,Overcast,270,2012-12-10 15:15:00
9:35 AM,25.2,19.8,80,29.97,10.0,West,13.8,19.6,N/A,,Overcast,270,2012-12-10 15:35:00
9:55 AM,25.7,19.9,79,29.97,10.0,West,12.7,-,N/A,,Overcast,270,2012-12-10 15:55:00
10:15 AM,25.9,19.8,78,29.98,10.0,WNW,12.7,18.4,N/A,,Overcast,290,2012-12-10 16:15:00
10:35 AM,26.2,19.8,76,29.98,10.0,West,12.7,19.6,N/A,,Overcast,280,2012-12-10 16:35:00
10:55 AM,26.6,20.1,77,29.97,10.0,West,15.0,18.4,N/A,,Overcast,270,2012-12-10 16:55:00
11:15 AM,26.6,20.3,77,29.97,10.0,West,12.7,17.3,N/A,,Overcast,270,2012-12-10 17:15:00
11:35 AM,27.3,20.5,75,29.96,10.0,West,10.4,-,N/A,,Overcast,280,2012-12-10 17:35:00
11:55 AM,27.9,21.0,75,29.95,10.0,West,10.4,-,N/A,,Overcast,270,2012-12-10 17:55:00
12:15 PM,28.4,21.4,75,29.94,10.0,WNW,9.2,-,N/A,,Overcast,290,2012-12-10 18:15:00
12:35 PM,28.8,21.6,74,29.94,10.0,West,10.4,16.1,N/A,,Overcast,270,2012-12-10 18:35:00
12:55 PM,28.8,21.2,73,29.93,10.0,West,11.5,-,N/A,,Overcast,270,2012-12-10 18:55:00
1:15 PM,29.7,21.9,73,29.93,10.0,West,9.2,-,N/A,,Overcast,270,2012-12-10 19:15:00
1:35 PM,29.7,21.7,72,29.93,10.0,WNW,10.4,-,N/A,,Overcast,290,2012-12-10 19:35:00
1:55 PM,30.2,22.1,72,29.93,10.0,West,10.4,-,N/A,,Overcast,270,2012-12-10 19:55:00
2:15 PM,30.4,22.5,72,29.94,10.0,West,13.8,-,N/A,,Overcast,270,2012-12-10 20:15:00
2:35 PM,30.6,22.5,72,29.95,10.0,West,8.1,17.3,N/A,,Overcast,280,2012-12-10 20:35:00
2:55 PM,31.1,22.6,71,29.95,10.0,West,9.2,-,N/A,,Overcast,280,2012-12-10 20:55:00
3:15 PM,31.1,22.8,71,29.95,10.0,WNW,6.9,-,N/A,,Overcast,300,2012-12-10 21:15:00
3:35 PM,31.1,22.8,71,29.96,10.0,West,10.4,-,N/A,,Overcast,280,2012-12-10 21:35:00
3:55 PM,31.3,22.5,70,29.96,10.0,WNW,10.4,-,N/A,,Overcast,290,2012-12-10 21:55:00
4:15 PM,31.1,22.5,70,29.96,10.0,WNW,8.1,-,N/A,,Overcast,290,2012-12-10 22:15:00
4:35 PM,31.5,23.0,71,29.97,10.0,WNW,5.8,-,N/A,,Overcast,290,2012-12-10 22:35:00
4:55 PM,31.6,22.8,70,29.97,10.0,WNW,4.6,-,N/A,,Overcast,300,2012-12-10 22:55:00
5:15 PM,31.6,23.4,71,29.98,10.0,NW,5.8,-,N/A,,Overcast,310,2012-12-10 23:15:00
5:35 PM,31.6,23.9,73,30.00,10.0,WNW,3.5,-,N/A,,Overcast,290,2012-12-10 23:35:00
5:55 PM,31.6,23.5,72,30.00,10.0,WNW,4.6,-,N/A,,Overcast,300,2012-12-10 23:55:00
6:15 PM,31.6,23.5,72,30.00,10.0,NW,3.5,-,N/A,,Overcast,310,2012-12-11 00:15:00
6:35 PM,31.5,23.7,73,30.01,10.0,Calm,Calm,-,N/A,,Overcast,0,2012-12-11 00:35:00
6:55 PM,31.3,23.7,74,30.02,10.0,Calm,Calm,-,N/A,,Overcast,0,2012-12-11 00:55:00
7:15 PM,31.1,23.9,75,30.02,10.0,Calm,Calm,-,N/A,,Overcast,0,2012-12-11 01:15:00
7:35 PM,30.9,24.8,78,30.02,10.0,Calm,Calm,-,N/A,,Overcast,0,2012-12-11 01:35:00
7:55 PM,30.7,24.1,76,30.03,10.0,Calm,Calm,-,N/A,,Overcast,0,2012-12-11 01:55:00
8:15 PM,30.9,23.0,72,30.03,10.0,Calm,Calm,-,N/A,,Overcast,0,2012-12-11 02:15:00
8:35 PM,31.1,22.6,71,30.03,10.0,Calm,Calm,-,N/A,,Overcast,0,2012-12-11 02:35:00
8:55 PM,30.7,22.1,70,30.03,10.0,West,4.6,-,N/A,,Overcast,260,2012-12-11 02:55:00
9:15 PM,29.5,22.1,74,30.03,10.0,West,5.8,-,N/A,,Mostly Cloudy,260,2012-12-11 03:15:00
9:35 PM,28.9,21.9,75,30.04,10.0,WSW,4.6,-,N/A,,Scattered Clouds,240,2012-12-11 03:35:00
9:55 PM,28.2,21.6,76,30.04,10.0,WSW,5.8,-,N/A,,Scattered Clouds,240,2012-12-11 03:55:00
10:15 PM,27.5,21.2,77,30.04,10.0,WSW,6.9,-,N/A,,Clear,250,2012-12-11 04:15:00
10:35 PM,27.0,21.0,78,30.05,10.0,WSW,5.8,-,N/A,,Clear,250,2012-12-11 04:35:00
10:55 PM,26.4,20.8,79,30.05,10.0,WSW,5.8,-,N/A,,Clear,240,2012-12-11 04:55:00
11:15 PM,26.2,20.8,80,30.05,10.0,WSW,6.9,-,N/A,,Scattered Clouds,250,2012-12-11 05:15:00
11:35 PM,25.7,20.3,80,30.04,10.0,WSW,3.5,-,N/A,,Scattered Clouds,250,2012-12-11 05:35:00
11:55 PM,24.8,20.1,82,30.06,10.0,West,3.5,-,N/A,,Clear,270,2012-12-11 05:55:00